GW2935 Weather Reports


time (UTC)temp
C
wind
direction
speed
KPH
gust
KPH
rain 1hr
cm
rain 24hr
cm
rain mn
cm
humidity
%
barometer
mb
20260510054550 24 109 0.0 6.4 0.00 0.05 0.00 90 1011.3
20260510053046 24 78 0.0 6.4 0.00 0.05 0.00 90 1011.2
20260510051558 24 323 0.0 4.8 0.00 0.05 0.00 91 1011.5
20260510050055 24 89 0.0 8.0 0.00 0.05 0.00 90 1011.6
20260510044548 23 105 1.6 6.4 0.00 0.05 0.05 90 1011.6
20260510043048 23 0 0.0 1.6 0.00 0.05 0.05 90 1011.7
20260510041549 24 0 0.0 8.0 0.00 0.05 0.05 89 1011.8
20260510040056 24 0 0.0 3.2 0.00 0.05 0.05 89 1011.8
20260510034547 24 0 0.0 4.8 0.00 0.05 0.05 89 1011.4
20260510033052 24 58 0.0 9.7 0.00 0.05 0.05 89 1011.9
20260510031547 25 96 1.6 6.4 0.00 0.05 0.05 89 1011.8
20260510024550 26 83 4.8 17.7 0.00 0.05 0.05 84 1011.5
20260510023052 26 99 1.6 8.0 0.00 0.05 0.05 74 1010.7
20260510021544 26 0 0.0 1.6 0.00 0.05 0.05 77 1010.4
20260510020046 25 97 0.0 8.0 0.00 0.05 0.05 79 1010.0
20260510014550 25 121 0.0 0.0 0.00 0.05 0.05 80 1009.5
20260510013046 25 0 0.0 0.0 0.00 0.05 0.05 79 1009.3
20260510011549 25 0 0.0 1.6 0.00 0.05 0.05 79 1009.0
20260510010047 25 0 0.0 0.0 0.03 0.05 0.05 74 1008.9
20260510004549 26 0 0.0 1.6 0.03 0.05 0.05 75 1008.7
20260510003044 26 0 0.0 4.8 0.03 0.05 0.05 79 1008.7
20260510001548 27 0 0.0 4.8 0.05 0.05 0.05 74 1008.6
20260510000050 27 0 1.6 8.0 0.03 0.03 0.03 68 1008.5
20260509234550 27 136 0.0 3.2 0.03 0.03 0.03 72 1008.2
20260509233053 28 108 0.0 0.0 0.03 0.03 0.03 75 1008.0
20260509231548 30 0 0.0 0.0 0.00 0.00 0.00 70 1008.0
20260509230058 31 0 0.0 0.0 0.00 0.00 0.00 62 1007.9
20260509224545 32 0 0.0 1.6 0.00 0.00 0.00 58 1007.8
20260509223043 32 237 0.0 3.2 0.00 0.00 0.00 56 1007.7
20260509221546 32 68 0.0 3.2 0.00 0.00 0.00 58 1007.6
20260509220046 31 0 1.6 4.8 0.00 0.00 0.00 62 1007.6
20260509214544 32 110 0.0 3.2 0.00 0.00 0.00 60 1007.6
20260509213052 32 104 0.0 6.4 0.00 0.00 0.00 62 1007.6
20260509211552 33 0 0.0 3.2 0.00 0.00 0.00 59 1007.7
20260509210101 33 289 0.0 4.8 0.00 0.00 0.00 60 1007.9
20260509204545 33 262 1.6 4.8 0.00 0.00 0.00 59 1008.2
20260509203048 32 281 1.6 6.4 0.00 0.00 0.00 60 1008.2
20260509201548 33 52 0.0 4.8 0.00 0.00 0.00 61 1008.5
20260509200044 32 272 1.6 4.8 0.00 0.00 0.00 61 1008.5
20260509194559 32 105 0.0 4.8 0.00 0.03 0.00 62 1008.7
20260509193049 32 32 0.0 4.8 0.00 0.03 0.00 64 1008.8
20260509191546 31 267 0.0 3.2 0.00 0.03 0.00 63 1008.9
20260509190049 31 0 0.0 4.8 0.00 0.03 0.00 64 1009.0
20260509184552 31 237 0.0 4.8 0.00 0.05 0.00 67 1009.1
20260509183051 30 70 0.0 4.8 0.00 0.05 0.00 68 1009.2
20260509181557 31 57 0.0 6.4 0.00 0.05 0.00 65 1009.4
20260509180049 31 32 1.6 8.0 0.00 0.05 0.00 69 1009.9
20260509174549 30 264 1.6 6.4 0.00 0.15 0.00 74 1010.1
20260509173048 30 47 1.6 11.3 0.00 0.15 0.00 76 1010.2
20260509171549 28 281 0.0 6.4 0.00 0.15 0.00 80 1010.5
20260509170051 27 53 0.0 3.2 0.00 0.15 0.00 82 1010.8
20260509164546 27 102 0.0 1.6 0.00 0.20 0.00 82 1010.8
20260509163047 27 0 0.0 1.6 0.00 0.20 0.00 82 1010.7
20260509161543 27 0 0.0 0.0 0.00 0.20 0.00 83 1010.8
20260509160046 27 0 0.0 0.0 0.00 0.20 0.00 84 1010.8
20260509154546 27 0 0.0 1.6 0.00 0.23 0.00 86 1010.6
20260509153059 26 0 0.0 0.0 0.00 0.23 0.00 88 1010.4
20260509151549 26 0 0.0 0.0 0.00 0.23 0.00 89 1010.7
20260509150048 25 0 0.0 0.0 0.00 0.23 0.00 91 1010.6
20260509144545 25 103 0.0 1.6 0.00 0.23 0.00 92 1010.2
20260509143050 25 0 0.0 0.0 0.00 0.23 0.00 93 1010.2
20260509141545 24 0 0.0 1.6 0.00 0.23 0.00 94 1010.0
20260509140051 24 0 0.0 4.8 0.00 0.23 0.00 95 1009.6
20260509134543 24 222 0.0 1.6 0.00 0.23 0.00 96 1010.1
20260509133046 24 0 0.0 0.0 0.00 0.23 0.00 97 1010.4
20260509131547 23 0 0.0 0.0 0.00 0.23 0.00 97 1011.0
20260509130045 23 0 0.0 0.0 0.00 0.23 0.00 97 1010.8
20260509124545 23 0 0.0 0.0 0.00 0.23 0.00 98 1010.7
20260509123044 22 0 0.0 0.0 0.00 0.23 0.00 97 1010.4
20260509121546 22 0 0.0 0.0 0.00 0.23 0.00 97 1010.4
20260509120058 22 0 0.0 0.0 0.00 0.23 0.00 97 1010.0
20260509114545 22 0 0.0 0.0 0.00 0.23 0.00 97 1010.2
20260509113044 22 0 0.0 0.0 0.00 0.23 0.00 97 1010.4
20260509111548 22 0 0.0 0.0 0.00 0.23 0.00 97 1010.4
20260509110053 22 0 0.0 0.0 0.00 0.23 0.00 97 1010.2
20260509104548 22 0 0.0 0.0 0.00 0.23 0.00 97 1009.7
20260509103051 22 0 0.0 0.0 0.00 0.23 0.00 97 1009.7
20260509101553 22 0 0.0 0.0 0.00 0.23 0.00 97 1009.5
20260509100051 22 0 0.0 0.0 0.00 0.23 0.00 97 1009.4
20260509094551 22 0 0.0 0.0 0.00 0.23 0.00 96 1009.3
20260509093048 22 0 0.0 0.0 0.00 0.23 0.00 96 1009.5
20260509091606 22 0 0.0 0.0 0.00 0.23 0.00 97 1009.8
20260509090046 22 0 0.0 0.0 0.00 0.23 0.00 96 1009.8
20260509084552 22 0 0.0 0.0 0.00 0.23 0.00 96 1009.5
20260509083051 22 0 0.0 0.0 0.00 0.23 0.00 96 1009.3
20260509081548 23 0 0.0 0.0 0.00 0.23 0.00 96 1009.6
20260509080103 22 0 0.0 1.6 0.00 0.23 0.00 96 1009.4
20260509074553 22 0 0.0 0.0 0.00 0.23 0.00 96 1009.3
20260509073114 23 0 0.0 0.0 0.00 0.23 0.00 96 1009.7
20260509071555 22 0 0.0 0.0 0.00 0.23 0.00 96 1010.1
20260509070048 22 0 0.0 0.0 0.00 0.23 0.00 95 1010.1
20260509064547 22 0 0.0 0.0 0.00 0.23 0.00 95 1010.0
20260509063049 22 0 0.0 0.0 0.00 0.23 0.00 95 1010.0
20260509061556 22 0 0.0 0.0 0.00 0.23 0.00 95 1010.1
20260509060057 22 0 0.0 0.0 0.00 0.23 0.00 95 1010.2